Wind_Speed
88 87 90 94 95 90 91 91 93 92 85 89 89 79 73 66 59 56 57 59 60 59 59 57 55 54 53
88 90 92 89 93 90 92 92 89 86 85 93 82 76 71 67 62 61 61 64 64 64 64 62 59 57 55
89 89 88 87 86 90 92 89 88 85 89 90 80 74 70 67 65 65 66 68 67 65 64 60 57 55 53
95 92 86 85 90 91 88 83 85 88 93 82 75 72 70 68 68 68 69 71 69 66 63 59 58 59 58
85 84 81 85 86 87 80 82 86 90 82 76 73 71 69 69 71 71 72 73 71 66 62 60 61 59 55
79 80 85 82 85 78 81 86 89 82 74 73 72 70 70 71 72 74 75 75 73 66 64 62 59 56 55
81 79 82 84 77 80 86 88 81 75 73 72 70 69 70 71 73 74 77 76 72 68 65 60 57 57 56
76 79 78 75 80 85 83 80 76 75 72 69 68 69 70 72 73 76 77 76 72 70 66 61 60 58 56
70 72 76 80 85 79 78 77 73 70 67 67 67 68 71 73 76 78 78 77 75 73 68 64 62 59 57
71 75 80 81 78 75 72 67 65 65 65 65 66 69 71 75 78 79 77 75 74 72 70 68 64 62 60
75 79 75 73 70 67 65 63 61 61 63 66 67 71 75 80 81 81 77 74 70 70 69 69 67 64 62
72 71 68 67 63 60 58 57 58 60 63 67 71 74 79 82 84 81 76 72 67 65 67 67 63 62 60
65 61 60 58 56 55 55 57 60 62 66 69 73 77 80 83 87 82 78 76 69 65 67 66 62 58 57
57 55 53 50 52 55 57 60 64 65 69 73 75 78 82 85 86 82 78 76 73 69 69 69 64 59 55
49 49 50 53 54 56 60 65 67 69 70 71 75 80 85 86 83 80 78 77 74 70 68 69 67 60 54
48 48 49 51 54 58 63 65 68 69 71 74 77 82 81 81 80 76 75 74 72 69 66 63 66 57 49
47 49 52 54 57 61 64 66 68 70 74 78 81 79 79 78 78 73 72 72 67 63 56 53 53 52 44
Wind_Direction
297 300 303 306 310 307 306 307 308 309 309 312 312 310 309 309 305 302 304 304 304 304 302 299 295 291 286
299 300 305 305 306 301 303 306 305 307 308 312 310 310 309 306 307 306 306 307 307 305 304 300 295 290 284
298 303 303 300 299 301 303 304 305 306 308 311 309 308 307 308 307 308 311 310 308 305 302 299 294 290 285
300 299 297 296 297 300 301 303 304 305 309 308 307 307 306 308 309 309 310 310 309 308 305 299 295 291 288
294 293 292 294 298 299 300 302 303 307 307 305 304 306 307 308 309 310 310 311 311 309 304 300 296 293 289
289 290 292 294 299 298 300 302 304 305 304 303 305 306 306 308 309 310 311 312 312 308 305 302 298 295 291
287 291 292 294 296 298 299 302 302 302 302 302 303 303 304 306 308 310 311 312 312 309 306 303 299 297 293
288 291 292 294 297 298 300 300 300 300 299 301 302 302 304 306 309 310 312 314 312 310 308 306 303 300 297
290 290 293 296 299 298 300 299 297 297 299 300 302 302 304 307 309 311 314 315 313 312 310 308 306 304 300
290 292 294 296 298 298 298 297 298 300 301 301 301 303 306 308 309 311 313 313 313 312 310 308 308 306 302
291 294 296 297 297 296 296 299 301 300 301 302 305 306 307 308 309 311 313 312 311 312 310 308 308 307 303
294 296 296 296 295 297 299 299 300 301 302 305 307 308 308 308 309 311 312 310 311 311 307 305 305 303 300
294 294 296 296 297 299 299 300 301 303 306 307 307 307 307 309 310 312 312 311 313 312 306 304 302 300 298
292 293 295 297 301 302 302 302 304 306 307 306 306 307 309 310 311 312 312 312 313 310 306 305 302 300 297
296 296 297 299 302 304 304 305 308 307 305 306 308 310 311 311 312 313 312 312 310 309 307 303 299 298 296
300 301 301 303 306 307 308 310 307 307 308 309 311 311 310 311 312 311 311 309 310 307 304 301 298 297 293
304 306 307 307 308 308 311 311 311 311 310 312 312 311 312 314 313 311 312 311 310 307 304 300 296 298 295
Height
10609 10600 10590 10582 10574 10566 10559 10550 10540 10531 10523 10513 10503 10495 10488 10481 10475 10471 10466 10461 10455 10450 10445 10440 10436 10432 10430
10590 10583 10575 10567 10560 10552 10544 10535 10526 10517 10508 10498 10487 10480 10473 10465 10459 10454 10448 10441 10435 10430 10424 10419 10415 10411 10409
10574 10566 10559 10552 10544 10537 10527 10518 10510 10502 10492 10481 10471 10465 10456 10449 10443 10436 10429 10422 10417 10411 10404 10398 10393 10390 10388
10557 10550 10543 10536 10529 10520 10510 10502 10494 10486 10477 10465 10457 10448 10440 10434 10427 10421 10413 10405 10398 10391 10384 10378 10373 10368 10365
10540 10534 10527 10520 10512 10504 10495 10487 10478 10470 10460 10449 10443 10433 10425 10418 10410 10404 10396 10388 10380 10372 10364 10358 10352 10347 10343
10523 10517 10510 10503 10495 10487 10480 10471 10463 10454 10445 10435 10426 10418 10410 10403 10395 10388 10379 10371 10361 10352 10344 10336 10330 10326 10322
10507 10499 10492 10487 10479 10471 10463 10454 10446 10437 10429 10421 10412 10404 10396 10388 10380 10372 10362 10353 10342 10332 10323 10316 10310 10304 10300
10489 10483 10476 10469 10462 10455 10446 10437 10428 10421 10413 10406 10398 10388 10380 10373 10364 10355 10345 10334 10322 10312 10303 10296 10289 10283 10279
10472 10466 10459 10452 10445 10436 10429 10420 10411 10404 10397 10390 10383 10374 10365 10356 10346 10337 10327 10316 10303 10292 10283 10275 10268 10263 10258
10457 10451 10443 10435 10427 10419 10412 10404 10396 10388 10381 10374 10366 10358 10349 10340 10330 10320 10311 10300 10288 10277 10265 10255 10248 10242 10235
10442 10434 10426 10419 10411 10404 10396 10390 10383 10374 10365 10357 10350 10340 10330 10319 10308 10299 10291 10280 10272 10262 10248 10237 10230 10222 10214
10424 10417 10410 10403 10396 10389 10382 10375 10369 10362 10352 10342 10332 10323 10312 10299 10287 10277 10271 10262 10256 10248 10235 10223 10216 10207 10198
10408 10402 10395 10388 10382 10375 10368 10362 10355 10347 10338 10328 10317 10306 10294 10281 10265 10255 10246 10235 10233 10227 10214 10205 10199 10191 10182
10394 10388 10382 10376 10369 10362 10355 10346 10339 10332 10323 10312 10301 10288 10275 10262 10248 10236 10227 10217 10208 10202 10192 10181 10176 10173 10166
10381 10376 10370 10363 10356 10349 10340 10332 10323 10315 10307 10297 10286 10271 10256 10241 10228 10218 10206 10197 10190 10181 10172 10159 10150 10150 10147
10369 10363 10357 10350 10344 10335 10326 10318 10307 10298 10288 10278 10268 10255 10242 10226 10212 10201 10191 10181 10171 10161 10152 10142 10125 10127 10128
10357 10351 10344 10338 10330 10321 10313 10303 10291 10281 10270 10260 10248 10236 10223 10209 10194 10183 10173 10158 10150 10140 10133 10126 10117 10107 10109